Regional Weather Roundup
Issued by NWS Columbia, SC

Home | Current Version | Previous Version | Text Only | Print | Product List | Glossary On
Versions: 1 2 3 4 5 6 7 8 9 10 11 12 13 14 15 16 17 18 19 20 21 22 23 24 25 26 27 28 29 30 31 32 33 34 35 36 37 38 39 40 41 42 43 44 45 46 47 48 49 50
000
ASUS42 KCAE 301610
RWRCAE
REGIONAL WEATHER ROUNDUP
NATIONAL WEATHER SERVICE COLUMBIA SC
1200 PM EDT SUN AUG 30 2015

NOTE: "FAIR" INDICATES FEW OR NO CLOUDS BELOW 12,000 FEET WITH NO
SIGNIFICANT WEATHER AND/OR OBSTRUCTIONS TO VISIBILITY.

NOT ALL STATIONS ARE QUALITY CONTROLLED BY THE NATIONAL
WEATHER SERVICE. USE DATA WITH CAUTION...ESPECIALLY
DEWPOINT OBSERVATIONS.

SCZ001>056-GAZ040-063>065-077-301700-
...UPSTATE SOUTH CAROLINA...

CITY           SKY/WX    TMP DP  RH WIND       PRES   REMARKS
ANDERSON       CLOUDY    76  63  64 E7        30.18S
LIBERTY        CLOUDY    74  64  72 NE6       30.19S
SPARTANBURG    CLOUDY    75  63  64 NE5       30.19F
CLEMSON        CLOUDY    74  64  71 NE5       30.20S
GREENVILLE     LGT RAIN  74  62  66 NE6       30.20F
GREENWOOD      LGT RAIN  71  66  84 NE5       30.19S
GREER          LGT RAIN  73  64  73 NE7       30.19S
ROCK HILL      CLOUDY    79  61  53 CALM      30.20S
LAURENS        CLOUDY    72  68  88 E5        30.19S


...CENTRAL SOUTH CAROLINA...

CITY           SKY/WX    TMP DP  RH WIND       PRES   REMARKS
COLUMBIA APT   LGT RAIN  77  65  66 NE7       30.16R
COLUMBIA OWENS CLOUDY    77  65  66 E3        30.17S
DARLINGTON     CLOUDY    75  66  73 NE3       30.19S
FLORENCE       CLOUDY    79  69  71 NE7       30.16F
MCENTIRE ANGB  LGT RAIN  75  67  76 E6        30.17R
ORANGEBURG     CLOUDY    77  70  79 E7        30.15S
SUMTER SHAW    CLOUDY    75  67  76 NE6       30.15R
NEWBERRY       DRIZZLE   70  66  88 NE3       30.21S
AIKEN          LGT RAIN  70  68  94 NE7       30.19S
BARNWELL       FAIR      75  73  94 E6        30.15F
MANNING        CLOUDY    77  72  83 NE3       30.16R
CAMDEN         FAIR      75  66  73 NE3       30.18S
LANCASTER      CLOUDY    77  64  65 E3        30.19S
WINNSBORO      LGT RAIN  72  68  88 NE3       30.18S


...EASTERN AND COASTAL SOUTH CAROLINA...

CITY           SKY/WX    TMP DP  RH WIND       PRES   REMARKS
MYRTLE BEACH   PTSUNNY   82  70  65 E14       30.16F
N MYRTLE BCH   PTSUNNY   82  70  66 E8        30.15F
CONWAY         CLOUDY    82  72  69 E7        30.15F
MARION         LGT RAIN  81  70  69 CALM      30.15F
HARTSVILLE     PTSUNNY   77  64  65 E7        30.18S
FLORENCE       CLOUDY    79  69  71 NE7       30.16F
DARLINGTON     CLOUDY    75  66  73 NE3       30.19S
CHARLESTON APT HVY RAIN  75  72  90 SE8       30.15R FOG
MOUNT PLEASANT LGT RAIN  81  75  83 CALM      30.14F
WALTERBORO     CLOUDY    79  73  83 E3        30.15S
BEAUFORT       CLOUDY    78  76  93 NE5       30.12F


...EASTERN GEORGIA...

CITY           SKY/WX    TMP DP  RH WIND       PRES   REMARKS
AUGUSTA BUSH F CLOUDY    76  72  87 E8        30.14R
AUGUSTA DANIEL CLOUDY    84  70  62 E9        30.15S
THOMSON        CLOUDY    76  74  96 E7        30.19S
WASHINGTON     RAIN      72  72 100 E3        30.16R
SYLVANIA       CLOUDY    80  76  90 E6        30.14F
STATESBORO     PTSUNNY   79  79 100 E6        30.12F
SAVANNAH       CLOUDY    82  75  79 NE7       30.10F


...SOUTHERN NORTH CAROLINA...

CITY           SKY/WX    TMP DP  RH WIND       PRES   REMARKS
CHARLOTTE      CLOUDY    81  56  42 CALM      30.20S
MONROE         CLOUDY    78  63  59 NE3       30.18F
WADESBORO      CLOUDY    80  61  53 N3        30.18S
ROCKINGHAM     CLOUDY    78  65  63 NE3       30.18S
RUTHERFORDTON  CLOUDY    75  64  67 CALM      30.22S
ASHEVILLE      CLOUDY    70  59  68 CALM      30.26S

$$



USA.gov is the U.S. government's official web portal to all federal, state and local government web resources and services.